Cloud_Cover
92 92 88 88 88 80 76 80 88 92 92 92 92 92 80 76 64 48 44 44 36 24 20 20 12 8 0 0 0 0 0 0 0 0 0 0 0 0 0 0 12 32 44 32 12 8 24 76 88 88 92 92 92 92 92 92 92 88 80 36 48 76 80 64 56 48 36 76 76 48 24 76 76 56 48 32 44 68 48 64 80 92 88 76 76 80
76 88 92 92 92 88 76 80 92 92 92 92 92 88 76 68 64 48 44 44 36 24 20 20 20 12 0 0 0 0 0 0 0 0 0 0 0 0 0 0 0 0 8 8 8 8 32 76 92 92 92 88 88 88 92 92 80 68 48 80 68 44 48 80 80 76 92 92 64 32 44 80 88 80 80 80 88 88 88 68 76 88 88 88 92 92
64 64 80 88 92 92 88 92 92 92 88 80 76 68 64 56 56 48 36 32 24 24 24 20 20 12 8 8 8 0 0 8 0 0 0 0 0 0 0 0 0 0 0 12 12 8 8 68 92 88 88 88 88 80 64 76 48 44 88 80 80 92 92 92 92 88 80 88 80 76 92 92 68 48 64 56 68 76 64 68 80 92 92 92 92 92
48 48 76 76 80 88 92 92 92 92 80 76 64 56 48 44 36 36 24 24 20 20 12 24 24 20 8 8 8 8 0 0 0 0 0 0 0 0 0 0 0 0 0 8 8 8 32 76 88 80 80 88 88 68 24 44 56 68 92 64 76 88 76 80 88 88 68 76 56 44 68 76 68 68 92 80 76 68 56 80 80 80 92 92 92 92
24 32 64 64 68 76 92 92 92 88 88 76 56 48 36 32 32 24 24 24 24 20 8 24 24 20 8 8 8 8 8 0 0 0 0 0 0 0 0 0 0 0 0 0 0 24 80 88 80 76 92 80 76 68 64 64 76 80 64 76 88 80 44 68 80 88 68 36 24 20 12 36 64 80 88 88 88 88 88 88 80 76 88 92 92 92
20 24 48 64 68 76 92 92 88 80 92 76 64 48 36 36 32 32 24 24 20 12 0 24 32 24 12 8 8 8 8 0 0 0 0 0 0 0 0 0 0 0 0 8 24 56 88 88 80 80 92 76 68 56 44 56 64 56 24 44 56 56 64 80 88 76 36 24 12 0 0 32 36 48 88 88 88 88 88 88 88 88 88 88 88 88
36 36 48 56 68 80 92 88 80 88 92 80 68 64 48 44 36 36 32 20 8 8 12 32 36 32 24 20 12 12 8 0 0 0 0 0 0 0 0 0 0 0 0 12 48 88 88 64 68 92 92 92 92 80 56 56 48 48 64 44 44 64 88 76 64 56 64 48 32 20 12 36 24 12 48 48 64 76 88 88 88 88 88 68 76 88
56 56 64 64 64 68 80 80 88 92 92 88 76 68 64 48 48 44 36 24 20 20 36 36 36 36 32 24 24 20 12 8 0 0 0 0 0 0 0 0 0 0 8 20 44 76 88 64 68 92 92 92 92 88 68 44 48 76 88 80 76 68 44 24 12 12 44 56 56 44 36 36 20 0 8 0 20 56 88 88 88 88 88 68 76 88
76 64 68 80 80 80 76 80 88 92 92 92 80 76 64 56 56 64 56 48 36 32 44 44 44 44 36 36 32 24 20 12 8 0 0 0 0 0 0 0 0 0 0 12 20 32 48 80 88 88 92 88 76 64 76 24 44 80 76 56 36 20 0 0 0 0 0 24 24 24 24 20 12 0 0 0 8 32 88 88 88 88 88 88 76 68
80 80 88 92 92 92 88 88 92 92 92 92 92 80 76 68 68 68 56 48 44 44 48 48 48 48 44 36 32 24 12 8 0 0 0 0 0 0 0 0 0 0 0 0 0 0 8 44 68 88 88 88 80 68 68 36 48 56 24 12 0 0 0 0 0 0 0 0 0 0 0 0 8 12 12 8 12 44 88 88 88 88 76 88 80 76
88 88 92 92 92 92 92 92 92 92 92 92 92 88 80 76 76 68 64 56 48 48 56 48 44 44 36 36 32 24 20 8 0 0 0 0 0 0 0 0 0 0 0 0 0 0 0 24 44 64 88 68 64 48 20 12 12 12 0 0 0 0 0 0 0 0 0 0 0 0 0 12 20 20 8 44 68 76 88 88 88 80 48 80 76 76
92 92 92 92 92 92 92 92 92 92 92 92 92 88 88 80 80 88 80 68 64 64 64 48 36 36 36 32 24 24 12 8 0 0 0 0 0 0 0 0 0 0 0 0 0 8 0 8 12 20 44 20 12 8 0 0 0 0 0 0 0 0 0 0 0 0 0 0 0 8 32 12 36 64 56 80 68 64 88 88 80 64 44 48 68 68
88 92 88 88 92 92 92 92 92 92 92 92 92 92 92 88 88 88 80 68 64 64 56 44 36 36 32 24 24 20 8 0 0 0 0 0 0 0 0 0 0 0 0 0 0 0 0 0 0 0 0 0 0 0 0 0 0 0 0 0 0 0 0 0 0 0 0 0 0 8 32 32 64 88 88 88 80 80 88 88 88 80 76 56 68 76
88 88 88 88 88 92 92 92 92 92 92 92 88 92 92 92 88 80 68 56 48 48 48 36 32 32 24 20 20 20 12 8 0 0 0 0 0 0 0 0 0 0 0 0 0 0 0 0 0 0 0 0 0 0 0 0 0 0 0 0 0 0 0 0 0 0 0 0 0 12 36 68 80 88 68 88 88 88 88 88 88 88 88 80 88 88
88 92 92 88 88 92 92 92 92 92 92 88 88 88 88 88 88 88 88 64 48 44 44 36 32 24 20 20 20 20 12 12 12 8 0 0 0 0 0 0 0 0 0 0 0 0 0 0 0 0 0 0 0 0 0 0 0 0 0 0 0 0 0 0 0 0 0 0 0 20 48 80 88 88 88 88 88 88 88 88 88 88 88 88 88 88
92 92 88 88 88 92 92 92 92 92 92 88 88 92 88 92 92 88 88 68 48 48 56 44 36 24 20 24 24 24 20 20 20 8 0 0 0 0 0 0 0 0 0 0 0 0 0 0 0 0 0 0 0 0 0 0 0 0 0 0 0 0 0 0 0 0 0 0 0 0 12 48 76 88 88 88 88 88 88 80 80 88 88 88 88 88
92 88 88 92 92 92 92 92 92 92 92 92 88 80 80 88 88 80 80 68 64 64 68 56 64 68 44 24 24 32 32 32 20 12 0 0 0 0 0 0 0 0 0 0 0 0 0 0 0 0 0 0 0 0 0 0 0 0 0 0 0 0 0 0 0 0 0 0 0 8 36 76 88 88 88 88 88 88 88 88 88 88 88 88 80 76
88 88 88 92 92 92 92 92 92 92 92 92 92 92 92 88 88 88 80 88 80 76 80 80 80 76 48 36 36 44 44 36 32 20 8 0 0 0 0 0 0 0 0 8 0 0 0 0 0 0 0 0 0 0 0 0 0 0 0 0 0 0 0 0 0 0 0 0 0 8 36 76 88 88 88 88 88 88 88 88 88 88 88 88 88 88
88 80 88 88 92 92 92 92 92 92 92 92 92 92 92 92 92 88 88 80 68 64 56 76 64 44 32 36 48 64 68 44 32 20 8 8 8 8 8 8 8 0 0 8 8 0 0 0 0 0 0 0 0 0 0 0 0 0 0 0 0 0 0 0 0 0 0 0 0 0 0 24 20 24 88 88 76 68 88 88 88 88 88 88 88 88
88 88 88 92 92 92 92 92 92 92 92 92 92 92 92 88 88 80 80 80 68 64 68 80 76 56 36 44 64 80 56 44 32 20 8 8 12 12 12 12 12 8 8 8 0 0 0 0 0 0 0 0 0 0 0 0 0 0 0 0 0 0 0 0 0 0 0 0 0 0 0 0 20 48 88 88 88 76 36 56 76 88 88 88 88 88
92 92 92 92 92 92 92 92 92 92 92 92 88 80 80 76 76 76 64 76 80 88 88 80 64 44 44 56 68 76 80 56 44 36 20 20 12 12 20 20 20 20 12 8 0 0 0 0 0 0 0 0 0 0 0 0 0 0 0 0 0 0 0 0 0 0 0 0 0 0 0 0 0 8 44 76 88 88 88 76 76 88 88 88 88 88
92 92 92 92 92 92 92 92 92 92 92 88 88 80 80 80 80 80 76 64 68 76 48 48 44 44 48 56 64 64 56 56 48 44 24 48 32 8 12 24 36 32 20 12 8 0 0 0 0 0 0 0 0 0 8 0 0 0 0 0 0 0 0 0 0 0 0 0 0 0 0 0 0 12 64 80 88 88 88 88 88 88 88 88 88 88
92 92 92 92 92 92 92 92 92 92 92 92 88 88 88 80 80 80 80 68 64 64 56 48 48 48 48 56 64 68 92 76 64 48 36 64 36 8 20 36 56 48 20 20 12 8 0 8 8 0 0 0 8 8 8 0 0 0 0 0 0 0 0 0 0 0 0 0 0 0 0 0 0 8 44 68 80 88 88 88 88 88 88 88 88 88
92 92 92 88 88 88 80 92 92 92 92 92 92 92 92 88 88 92 92 80 80 80 80 76 76 68 56 56 56 68 92 92 80 64 56 36 24 20 24 48 64 56 20 24 20 12 12 8 0 0 8 8 8 8 0 0 0 0 0 0 0 0 0 0 0 0 0 0 0 0 0 0 0 0 0 0 24 64 88 88 88 88 88 88 88 88
92 92 92 88 80 80 68 76 88 92 92 92 92 92 92 92 92 92 92 88 88 88 88 88 88 88 88 76 76 76 92 92 76 68 88 64 36 24 24 36 64 76 44 24 20 12 12 12 8 8 8 8 0 0 0 0 0 0 0 0 0 0 0 0 0 0 0 0 0 0 0 0 0 0 0 0 0 24 88 88 88 88 88 88 88 88
92 92 92 92 88 80 80 68 76 88 92 92 92 92 92 92 92 92 88 88 88 88 88 88 88 88 88 92 88 80 76 88 76 68 88 88 56 32 32 48 76 76 48 20 12 12 12 12 8 8 8 0 0 0 0 0 0 0 0 0 0 0 0 0 0 0 0 0 0 0 0 0 0 0 0 0 0 24 80 88 88 88 88 76 68 76
92 92 92 92 92 92 92 80 76 80 92 92 92 92 92 92 92 92 88 88 88 88 88 88 80 80 88 88 92 80 64 68 64 64 76 80 80 68 48 68 76 68 36 24 20 20 20 12 12 8 8 0 0 0 0 0 0 0 0 0 0 0 0 0 0 0 0 0 0 0 0 0 0 0 0 0 8 32 88 88 88 88 88 48 36 48
92 92 92 92 92 92 92 92 92 92 92 92 92 92 92 92 92 88 80 80 88 88 88 80 80 80 88 88 80 76 68 64 64 64 56 80 88 80 68 68 80 80 56 56 36 20 12 12 8 0 0 0 0 0 0 0 0 0 0 0 0 0 0 0 0 0 0 0 0 0 0 0 0 0 0 0 0 12 56 64 76 88 88 88 76 68
92 92 92 92 92 92 92 92 92 92 92 92 92 92 92 92 88 80 80 80 80 88 88 80 80 80 88 80 76 76 88 68 64 64 64 80 80 64 36 76 80 80 64 80 68 44 20 12 8 0 0 8 8 8 8 8 8 0 0 0 0 0 0 0 0 0 0 0 0 0 0 0 0 0 0 0 0 0 0 8 44 80 88 88 88 80
92 92 92 92 92 92 92 92 92 92 92 92 92 92 92 92 92 92 92 92 88 80 80 80 80 88 92 92 92 88 88 64 64 64 68 88 76 56 36 76 80 76 68 80 88 68 20 8 8 8 8 12 12 12 8 8 8 0 0 8 0 0 0 0 0 0 0 0 0 0 0 0 0 0 0 0 0 0 0 0 24 56 88 88 88 80
92 92 92 92 92 92 92 92 92 92 92 92 92 92 92 88 92 92 92 92 88 80 88 88 88 92 92 92 92 88 68 64 56 68 80 88 80 64 24 76 88 76 56 68 76 76 44 32 12 0 8 8 8 12 12 12 12 12 8 12 8 8 0 0 0 0 0 0 0 0 0 0 0 0 0 0 0 0 0 0 8 24 88 80 80 80
92 92 92 92 92 92 92 92 92 92 92 92 92 92 92 92 92 92 92 92 92 92 92 92 92 92 92 88 88 80 64 56 68 80 92 80 64 44 32 68 88 76 44 44 56 68 76 36 12 0 0 0 0 8 20 24 24 24 20 12 12 8 0 0 0 0 0 0 0 0 0 0 0 0 0 0 0 0 0 0 0 24 80 80 80 80
92 92 92 92 92 92 92 92 92 92 92 92 92 92 92 92 92 92 92 92 92 92 92 92 92 92 88 88 88 80 80 68 76 88 92 76 64 48 36 68 80 76 36 64 68 68 64 36 20 0 0 0 0 12 24 32 32 24 20 12 8 8 0 0 0 0 0 0 0 0 0 0 0 0 0 0 0 0 0 0 0 12 44 76 80 80
92 92 92 92 92 92 92 92 92 92 92 92 92 92 92 92 92 92 92 92 92 88 92 92 92 92 88 80 80 88 88 80 80 80 88 64 56 44 20 32 56 80 64 80 88 80 68 68 56 36 36 20 20 24 32 36 36 32 24 12 8 8 0 0 0 0 0 0 0 0 0 0 0 0 0 0 0 0 0 0 0 8 32 68 80 80
92 92 92 92 92 92 92 92 92 92 92 92 92 92 92 92 92 92 92 92 92 92 92 92 88 80 76 80 88 80 68 76 76 76 76 44 24 20 12 12 24 48 80 80 80 80 80 80 80 76 76 44 44 48 56 56 48 44 32 12 8 0 0 0 0 0 0 0 0 0 0 0 0 0 0 0 0 0 0 0 0 0 12 24 32 32
92 92 92 92 92 92 92 92 92 92 92 92 92 88 88 92 92 92 92 92 92 92 92 92 92 88 88 88 80 76 64 76 76 76 64 32 20 24 64 20 12 36 80 80 80 80 80 56 64 80 80 68 68 68 64 56 64 68 48 20 8 0 0 0 0 0 0 0 0 0 0 0 0 0 0 0 0 0 0 0 0 0 0 0 0 0
92 92 92 92 92 92 92 92 92 92 92 92 92 92 92 92 92 92 92 92 88 88 80 88 92 92 88 88 88 80 64 68 68 68 68 44 32 32 36 12 8 12 24 56 68 80 80 76 76 80 80 80 80 76 76 56 64 68 64 24 20 20 8 8 8 0 0 0 0 0 0 0 0 0 0 0 0 0 0 0 0 0 0 0 0 0
92 92 92 92 92 92 92 92 92 92 92 92 92 92 92 92 92 92 92 92 80 76 76 88 92 88 80 80 80 68 56 64 64 64 56 44 32 24 12 32 24 20 8 64 80 80 80 80 80 80 80 80 80 80 80 80 76 76 80 48 44 36 12 12 12 8 0 0 0 0 0 0 0 0 0 0 0 0 0 0 0 0 0 0 0 0
92 92 92 92 92 92 92 92 92 92 92 92 92 92 92 92 80 76 76 76 68 64 88 92 88 80 76 76 68 64 64 64 56 48 48 36 32 32 36 68 68 64 56 80 88 88 80 80 76 68 68 76 80 80 80 80 80 68 44 68 64 56 68 44 32 24 8 0 0 0 0 0 0 0 0 0 0 0 0 0 0 0 0 0 0 0
92 92 92 88 88 88 92 88 92 92 92 92 92 92 88 80 80 68 64 56 68 80 88 88 88 80 76 68 64 64 48 48 44 44 44 36 36 36 44 80 88 88 88 88 88 88 88 80 80 76 80 80 80 80 80 80 76 68 76 80 80 68 36 68 56 24 8 0 0 0 0 0 0 0 0 0 0 0 0 0 0 0 0 0 0 0
88 88 88 80 76 76 68 80 88 88 76 76 76 80 88 76 68 68 56 56 76 88 88 88 80 80 68 64 56 48 36 32 32 36 36 64 76 88 88 88 88 88 88 88 88 88 88 80 80 80 80 80 80 80 80 80 80 80 80 80 80 68 44 56 48 32 32 20 20 20 0 0 0 0 0 0 0 0 0 0 0 0 0 8 20 20
88 76 56 76 80 80 76 76 80 80 68 76 80 80 80 80 80 80 76 76 76 80 88 92 88 88 88 76 56 44 56 56 56 56 64 80 88 88 92 88 88 88 88 88 88 88 88 80 80 80 80 80 80 80 80 80 76 68 80 80 80 76 64 76 68 48 36 20 8 0 0 0 0 0 0 0 0 0 0 0 0 0 20 20 24 24
80 76 80 88 80 76 68 76 80 80 80 88 80 76 68 80 88 80 76 76 76 88 92 92 92 92 88 88 68 48 68 68 68 76 88 80 80 80 88 88 88 88 88 88 88 88 88 88 88 80 80 80 80 80 76 76 80 80 80 80 80 80 80 80 80 68 36 12 0 0 0 0 0 0 0 0 0 0 0 0 0 0 0 0 0 0
76 76 92 80 76 76 64 76 88 92 88 92 92 92 88 88 88 88 88 76 76 80 88 92 92 92 88 88 76 68 88 80 80 80 76 64 64 68 88 76 68 76 88 88 88 88 80 80 80 80 80 80 80 80 76 76 80 80 80 80 80 80 76 76 48 32 76 32 12 0 0 0 0 0 0 0 0 0 0 0 0 0 0 0 0 0
68 76 76 76 80 88 88 88 88 92 92 92 92 92 92 92 92 92 92 88 88 92 92 92 92 92 92 80 80 88 88 88 80 80 68 76 68 64 68 64 64 76 88 88 88 88 88 80 80 80 80 80 80 80 80 76 76 76 80 80 80 68 32 20 44 68 36 44 20 0 0 0 0 0 0 8 0 0 0 0 0 0 0 0 0 0
88 88 88 88 88 88 88 92 92 92 92 92 92 92 92 92 92 92 92 92 92 92 92 92 92 92 88 88 88 88 80 80 76 64 64 56 48 56 64 64 68 68 76 80 80 80 88 88 88 88 80 80 80 80 80 76 76 76 68 76 76 76 48 68 56 32 12 44 24 0 0 0 0 0 8 12 8 0 0 0 0 0 0 0 0 0
92 92 80 88 88 92 88 92 92 92 92 92 92 92 92 92 92 92 92 92 92 92 92 92 88 88 88 88 88 88 88 88 76 56 48 68 80 80 68 80 80 80 76 76 80 88 88 88 88 88 80 80 80 76 76 76 80 68 32 24 48 80 80 48 56 64 20 56 36 0 0 0 8 12 20 44 32 12 0 0 0 0 0 0 0 0
92 92 88 92 92 92 88 88 88 88 88 88 88 88 88 92 92 92 92 92 92 92 88 88 88 88 88 88 88 88 80 80 64 56 76 88 88 88 88 88 88 88 88 88 88 88 88 88 88 88 88 80 80 76 76 76 80 80 80 48 64 80 80 68 68 56 20 32 20 0 0 0 32 56 44 68 56 24 8 0 0 0 0 0 0 0
92 92 92 88 88 88 88 88 88 88 80 88 88 88 88 88 88 88 88 88 88 88 88 88 88 88 88 88 88 80 80 88 80 80 88 92 92 92 92 88 88 88 88 68 76 88 80 80 80 88 88 80 80 80 76 76 76 80 80 80 80 80 80 44 32 32 32 32 12 0 0 8 12 32 76 76 44 12 0 0 0 0 0 0 0 0
92 92 92 92 92 92 88 88 88 88 80 88 88 88 88 88 88 88 88 88 88 88 88 88 88 88 88 80 80 88 92 92 92 88 88 88 88 92 92 80 80 88 88 80 80 80 80 80 80 80 80 80 88 88 80 68 76 80 80 80 80 80 80 76 48 32 80 48 24 8 8 0 8 32 76 76 48 20 8 8 0 0 0 0 0 0
92 92 92 92 92 92 88 88 80 80 88 88 88 88 88 88 88 88 88 88 88 88 88 88 88 88 88 88 88 88 92 92 92 92 88 80 80 80 80 56 64 76 76 80 80 80 80 80 80 76 64 80 88 88 88 80 80 80 80 80 80 80 80 76 68 56 56 24 8 8 12 12 20 36 68 76 76 64 36 12 0 0 0 0 0 0